{"data":{"norad_id":69745,"epoch":"2026-09-18T23:18:14.431104Z","epoch_age_seconds":149844,"freshness":"FRESH","line1":"1 69745U 26150G   26261.97100036  .00022959  00000+0  71092-3 0  9996","line2":"2 69745  97.2834 100.9522 0001179  90.3217 269.8161 15.33463228 13504","mean_motion":15.33463228,"eccentricity":0.0001179,"inclination_deg":97.2834,"raan_deg":100.9522,"arg_perigee_deg":90.3217,"mean_anomaly_deg":269.8161,"bstar":0.00071092,"rev_number":1350,"period_min":93.905088410767,"perigee_km":464.68207781336,"apogee_km":466.29580481032,"semimajor_km":6843.6259413118,"source":"CELESTRAK","updated_at":"2026-09-20T09:00:44.287171Z"}}